This is the latest recevied weather packets stored in our database for station/object N5SRF. If no packets are shown the sender has not sent any weather packets the latest 1 day(s).
| Time | Temp. | Humidity | Pressure | Rain* | Wind** | Luminosity | Snow |
|---|---|---|---|---|---|---|---|
| 1778074084 | 24.44° C | 98% | 1014.4 hPa | 0 mm | - | 80 W/m² | - |
| 1778073781 | 23.89° C | 98% | 1014.4 hPa | 0 mm | - | 93 W/m² | - |
| 1778072872 | 23.89° C | 99% | 1014.6 hPa | 0 mm | - | 50 W/m² | - |
| 1778072267 | 23.89° C | 99% | 1014.4 hPa | 0 mm | - | 39 W/m² | - |
| 1778071360 | 23.89° C | 99% | 1014.3 hPa | 0 mm | - | 34 W/m² | - |
| 1778070756 | 23.89° C | 99% | 1014.2 hPa | 0 mm | - | 29 W/m² | - |
| 1778069848 | 23.89° C | 99% | 1014.2 hPa | 0 mm | - | 23 W/m² | - |
| 1778068637 | 23.33° C | 98% | 1014 hPa | 0 mm | - | 10 W/m² | - |
| 1778068335 | 23.33° C | 98% | 1013.8 hPa | 0 mm | - | 7 W/m² | - |
| 1778067125 | 23.33° C | 98% | 1013.7 hPa | 0 mm | - | 1 W/m² | - |
| 1778066821 | 23.33° C | 98% | 1013.4 hPa | 0 mm | - | 1 W/m² | - |
| 1778065914 | 23.33° C | 97% | 1013.4 hPa | 0 mm | - | 0 W/m² | - |
| 1778064702 | 23.89° C | 97% | 1013.1 hPa | 0 mm | - | 0 W/m² | - |
| 1778064400 | 23.89° C | 97% | 1013 hPa | 0 mm | - | 0 W/m² | - |
| 1778063794 | 23.89° C | 97% | 1013.2 hPa | 0 mm | - | 0 W/m² | - |
| 1778062583 | 23.89° C | 96% | 1013.1 hPa | 0 mm | - | 0 W/m² | - |
| 1778062280 | 23.89° C | 96% | 1013.2 hPa | 0 mm | - | 0 W/m² | - |
| 1778061676 | 23.89° C | 97% | 1013.1 hPa | 0 mm | - | 0 W/m² | - |
| 1778061375 | 23.89° C | 96% | 1013.1 hPa | 0 mm | - | 0 W/m² | - |
| 1778061071 | 23.89° C | 96% | 1012.8 hPa | 0 mm | - | 0 W/m² | - |
| 1778060466 | 23.89° C | 97% | 1013 hPa | 0 mm | - | 0 W/m² | - |
| 1778059861 | 23.89° C | 97% | 1012.6 hPa | 0 mm | - | 0 W/m² | - |
| 1778058954 | 23.89° C | 97% | 1012.5 hPa | 0 mm | - | 0 W/m² | - |
| 1778058651 | 23.89° C | 97% | 1012.6 hPa | 0 mm | - | 0 W/m² | - |
| 1778058349 | 23.89° C | 97% | 1012.7 hPa | 0 mm | - | 0 W/m² | - |
* Rain latest hour (hover to see other rain measurements)
** Current wind speed in m/s (hover to see current wind gust speed)